Zurück zum Katalog

FENGYUN 1C DEB

AktivPO
NORAD 32322·DEBRIS·🇨🇳 China

Gestartet May 10, 1999 von Taiyuan Satellite Launch Center

Loading…

Nächste Überflüge (nächste 24 Stunden)

TLE

AktuellSource: Space-Track

Epoche: Sep 13, 2026, 09:11 UTC

1 32322U 99025CXP 26256.38299281  .00000453  00000-0  58699-3 0  9992
2 32322  98.3456  94.1057 0418353 124.0351 240.1247 13.34552162640423

Verfolge FENGYUN 1C DEB in Echtzeit mit AllMySat

Download on the App Store